[[{"header":{"parameterUnit":"m.s-1","parameterCategory":1,"la1":30.2991,"la2":30.254,"lo1":-89.0895,"lo2":-89.0444,"dy":0.0017,"dx":0.0017,"nx":28,"ny":28,"refTime":"2024-12-16T03:00:00:Z","depth":0,"parameterNumber":2,"parameterNumberName":"U-component_of_WINDS"},"data":[0,0,0,0,0,0,0,0,0,0,0,0,0,0,0,0,0,0,0,0,0,0,0,0,0,0,0,0,0,0,0,0,0,0,0,0,0,0,0,0,0,0,0,0,0,0,0,0,0,0,0,0,0,0,0,0,0,0,-3.7595,-3.7595,0,-3.7595,-3.7595,-3.7595,-3.7505,-3.7502,-3.75,-3.7498,-3.75,-3.7502,-3.7504,0,0,0,0,0,0,0,0,0,0,0,0,0,-3.7521,-3.7523,-3.7595,-3.7595,-3.7595,-3.7595,-3.7595,-3.7595,-3.7505,-3.7502,-3.7499,-3.7497,-3.7499,-3.7502,-3.7504,0,0,0,0,0,0,0,0,0,0,0,0,0,-3.7541,-3.7524,-3.7595,-3.755,-3.7546,-3.7595,-3.7595,-3.7595,-3.7506,-3.7502,-3.7499,-3.7495,-3.7498,-3.7501,-3.7505,-3.7597,0,0,-3.7515,-3.7517,0,0,0,0,0,0,0,0,-3.754,-3.7543,-3.7557,-3.7554,-3.7549,-3.7546,-3.7569,-3.7596,-3.7507,-3.7521,-3.7498,-3.7494,-3.7518,-3.752,-3.7528,-3.7597,-3.7597,-3.7515,-3.7518,-3.7519,-3.752,0,0,0,0,0,0,0,-3.7538,-3.7543,-3.7595,-3.7557,-3.7553,-3.7531,-3.753,-3.7574,-3.754,-3.752,-3.7513,-3.7514,-3.7515,-3.7525,-3.7527,-3.7597,-3.7515,-3.7518,-3.7521,-3.7522,-3.7744,-3.7748,0,0,0,0,0,0,-3.7543,-3.7542,-3.7595,-3.7595,-3.7535,-3.7536,-3.7534,-3.7551,-3.7539,-3.7534,-3.7517,-3.751,-3.752,-3.7523,-3.7527,-3.7635,-3.7519,-3.7522,-3.7524,-3.774,-3.7745,-3.7749,0,0,0,0,0,0,-3.7542,-3.7548,-3.7595,-3.7567,-3.7571,-3.7541,-3.756,-3.7553,-3.7562,-3.7537,-3.7531,-3.7533,-3.7518,-3.7522,-3.758,-3.7634,-3.7524,-3.7527,-3.7736,-3.7742,-3.7747,-3.7852,0,0,0,0,0,0,-3.754,-3.7549,-3.7582,-3.7568,-3.7573,-3.7648,-3.7563,-3.7555,-3.7567,-3.7558,-3.755,-3.7545,-3.7515,-3.7576,-3.7584,-3.7636,-3.7529,-3.7731,-3.7738,-3.7745,-3.7843,-3.786,-3.7875,0,0,0,0,0,-3.7538,-3.7612,-3.7585,-3.7592,-3.7615,-3.7652,-3.7654,-3.7618,-3.7572,-3.7607,-3.7591,-3.7546,-3.7627,-3.7583,-3.7591,-3.7645,-3.7727,-3.7736,-3.7745,-3.7836,-3.7857,-3.7874,0,0,0,0,0,0,-3.7633,-3.7609,-3.7579,-3.7651,-3.7654,-3.7636,-3.7678,-3.7641,-3.7657,-3.7648,-3.7602,-3.7601,-3.7668,-3.7662,-3.7613,-3.7735,-3.7669,-3.768,-3.7736,-3.7755,-3.7771,-3.7771,-3.7532,0,0,0,0,0,-3.7663,-3.7694,-3.7671,-3.7737,-3.774,-3.771,-3.7724,-3.7696,-3.7697,-3.7698,-3.7687,-3.7691,-3.7718,-3.7736,-3.7759,-3.7842,-3.784,-3.7884,-3.7899,-3.7912,-3.7923,-3.7968,-3.7987,-3.7778,-3.7778,-3.7777,0,0,-3.7724,-3.7715,-3.7737,-3.7756,-3.7755,-3.779,-3.7711,-3.775,-3.7776,-3.7704,-3.7759,-3.7751,-3.7753,-3.7825,-3.7856,-3.7822,-3.798,-3.7924,-3.7934,-3.7937,-3.7979,-3.7998,-3.8016,-3.7783,-3.7782,-3.7781,0,0,-3.7854,-3.7849,-3.7904,-3.7905,-3.7905,-3.7884,-3.7897,-3.7886,-3.7878,-3.7931,-3.7879,-3.7909,-3.7955,-3.7959,-3.7967,-3.81,-3.8059,-3.8108,-3.8191,-3.8236,-3.8252,-3.8266,-3.8315,-3.8333,-3.8118,-3.8119,-3.8119,0,-3.793,-3.7979,-3.7937,-3.798,-3.7991,-3.7928,-3.7984,-3.7987,-3.7995,-3.8004,-3.7966,-3.8024,-3.802,-3.8092,-3.8125,-3.8133,-3.8148,-3.8109,-3.8253,-3.8267,-3.828,-3.8326,-3.8344,-3.8125,-3.8124,-3.8123,-3.8123,0,-3.8073,-3.8108,-3.8153,-3.8161,-3.8177,-3.8226,-3.8194,-3.8215,-3.8185,-3.8169,-3.8226,-3.822,-3.8241,-3.8256,-3.8227,-3.8325,-3.8304,-3.8261,-3.8194,-3.8307,-3.8349,-3.8366,-3.8134,-3.8131,-3.8129,-3.8128,0,0,-3.8263,-3.8249,-3.8266,-3.8269,-3.8265,-3.8292,-3.8339,-3.8359,-3.8379,-3.8386,-3.8426,-3.8467,-3.8427,-3.8436,-3.8408,-3.8447,-3.8554,-3.8398,-3.8397,-3.8428,-3.8662,-3.8696,-3.8717,-3.8527,-3.853,-3.8532,-3.8662,0,-3.8389,-3.8468,-3.8433,-3.8516,-3.8549,-3.849,-3.8531,-3.8534,-3.852,-3.8547,-3.8531,-3.8562,-3.8506,-3.8511,-3.8547,-3.8533,-3.86,-3.8523,-3.8564,-3.8566,-3.8566,-3.8738,-3.8773,-3.8897,-3.8679,-3.8681,-3.8683,0,-3.8546,-3.856,-3.8647,-3.8638,-3.865,-3.8688,-3.8704,-3.873,-3.8732,-3.872,-3.8731,-3.8694,-3.8741,-3.8675,-3.874,-3.8688,-3.8703,-3.8699,-3.8703,-3.8706,-3.8632,-3.8747,-3.8935,-3.8954,-3.8709,-3.8707,-3.8705,0,-3.8677,-3.8717,-3.8775,-3.878,-3.877,-3.8799,-3.8796,-3.8795,-3.881,-3.8825,-3.8834,-3.8855,-3.8866,-3.8883,-3.8854,-3.8808,-3.8924,-3.8854,-3.8916,-3.8917,-3.8943,-3.8942,-3.9137,-3.8952,-3.8951,-3.8951,-3.8951,0,-3.8821,-3.8877,-3.8833,-3.8869,-3.893,-3.889,-3.8952,-3.8943,-3.8943,-3.8976,-3.8927,-3.896,-3.8918,-3.8948,-3.8925,-3.8983,-3.8988,-3.8981,-3.8974,-3.8985,-3.8987,-3.8995,-3.8986,-3.8956,-3.8955,-3.8954,-3.8953,0,-3.8977,-3.895,-3.9009,-3.8996,-3.8994,-3.904,-3.9029,-3.9062,-3.9045,-3.9088,-3.9096,-3.907,-3.9102,-3.9075,-3.9105,-3.909,-3.9168,-3.9149,-3.9167,-3.9162,-3.9225,-3.922,-3.9433,-3.9459,-3.9257,-3.9259,-3.9261,0,-3.9071,-3.9113,-3.9104,-3.9123,-3.9124,-3.9155,-3.917,-3.9132,-3.915,-3.9157,-3.919,-3.9217,-3.9238,-3.9292,-3.9276,-3.93,-3.9282,-3.9355,-3.9285,-3.9296,-3.9284,-3.9282,-3.9287,-3.9369,-3.9372,-3.9373,-3.9375,0,-3.9242,-3.9227,-3.925,-3.927,-3.9289,-3.9303,-3.9312,-3.9331,-3.9293,-3.9316,-3.9348,-3.9364,-3.9395,-3.9424,-3.9443,-3.9442,-3.9403,-3.9397,-3.9413,-3.9425,-3.9434,-3.9431,-3.9207,-3.9393,-3.9391,-3.9389,-3.9389,-3.9388,-3.937,-3.9405,-3.9405,-3.9433,-3.9436,-3.9447,-3.9478,-3.9465,-3.9491,-3.9514,-3.949,-3.953,-3.9533,-3.9554,-3.9557,-3.9588,-3.9558,-3.9581,-3.9586,-3.9593,-3.9602,-3.9429,-3.9592,-3.9591,-3.9591,-3.959,-3.959,0,-3.9539,-3.9536,-3.9563,-3.9578,-3.9601,-3.9562,-3.9571,-3.9593,-3.9628,-3.9633,-3.9654,-3.9692,-3.972,-3.9708,-3.9732,-3.976,-3.9743,-3.9768,-3.9765,-3.9766,-3.9627,-3.9612,-3.9781,-3.9781,-3.9781,-3.9781,-3.9781,-3.9781,-3.9629,-3.9686,-3.9672,-3.9731,-3.9727,-3.9765,-3.9774,-3.9784,-3.9789,-3.9833,-3.9856,-3.9847,-3.9846,-3.987,-3.9895,-3.9891,-3.9902,-3.9934,-3.9924,-3.9794,-3.9776,-3.9758,-3.9743,-3.9937,-3.9937,-4.006,-4.0061,-4.0062]},{"header":{"parameterUnit":"m.s-1","parameterCategory":1,"la1":30.2991,"la2":30.254,"lo1":-89.0895,"lo2":-89.0444,"dy":0.0017,"dx":0.0017,"nx":28,"ny":28,"refTime":"2024-12-16T03:00:00:Z","depth":0,"parameterNumber":3,"parameterNumberName":"V-component_of_WINDS"},"data":[0,0,0,0,0,0,0,0,0,0,0,0,0,0,0,0,0,0,0,0,0,0,0,0,0,0,0,0,0,0,0,0,0,0,0,0,0,0,0,0,0,0,0,0,0,0,0,0,0,0,0,0,0,0,0,0,0,0,0.4346,0.4346,0,0.4348,0.4348,0.4348,0.4368,0.4369,0.4369,0.437,0.4371,0.437,0.437,0,0,0,0,0,0,0,0,0,0,0,0,0,0.436,0.436,0.4346,0.4346,0.4346,0.4348,0.4348,0.4348,0.4368,0.4369,0.4369,0.437,0.4371,0.437,0.437,0,0,0,0,0,0,0,0,0,0,0,0,0,0.4357,0.436,0.4346,0.4356,0.4357,0.4348,0.4348,0.4348,0.4368,0.4369,0.4369,0.437,0.4371,0.437,0.437,0.435,0,0,0.4367,0.4367,0,0,0,0,0,0,0,0,0.4358,0.4357,0.4355,0.4356,0.4357,0.4359,0.4354,0.4349,0.4368,0.4364,0.437,0.437,0.4366,0.4366,0.4364,0.435,0.435,0.4367,0.4367,0.4367,0.4367,0,0,0,0,0,0,0,0.4358,0.4357,0.4347,0.4355,0.4356,0.4361,0.4362,0.4353,0.4361,0.4364,0.4366,0.4366,0.4367,0.4365,0.4365,0.435,0.4367,0.4367,0.4366,0.4366,0.4323,0.4323,0,0,0,0,0,0,0.4357,0.4357,0.4347,0.4347,0.4359,0.436,0.4361,0.4357,0.4361,0.4362,0.4365,0.4367,0.4366,0.4365,0.4365,0.4344,0.4367,0.4366,0.4366,0.4324,0.4323,0.4322,0,0,0,0,0,0,0.4357,0.4355,0.4347,0.4352,0.4352,0.4359,0.4355,0.4357,0.4355,0.4361,0.4363,0.4362,0.4366,0.4366,0.4354,0.4344,0.4366,0.4365,0.4325,0.4324,0.4323,0.4301,0,0,0,0,0,0,0.4357,0.4355,0.4348,0.4352,0.4351,0.4336,0.4355,0.4356,0.4354,0.4356,0.4359,0.436,0.4367,0.4355,0.4354,0.4344,0.4365,0.4326,0.4324,0.4323,0.4303,0.43,0.4297,0,0,0,0,0,0.4358,0.4341,0.4347,0.4346,0.4342,0.4336,0.4335,0.4344,0.4353,0.4346,0.435,0.436,0.4346,0.4354,0.4352,0.4342,0.4326,0.4325,0.4323,0.4304,0.43,0.4297,0,0,0,0,0,0,0.4334,0.4342,0.4349,0.4333,0.4334,0.4339,0.433,0.4339,0.4336,0.4338,0.4348,0.4349,0.4336,0.4338,0.4347,0.4325,0.4338,0.4336,0.4324,0.432,0.4317,0.4317,0.4364,0,0,0,0,0,0.4328,0.4322,0.4328,0.4314,0.4314,0.4322,0.4319,0.4326,0.4327,0.4327,0.433,0.4331,0.4327,0.4323,0.432,0.4303,0.4305,0.4296,0.4293,0.429,0.4288,0.4282,0.4278,0.4317,0.4317,0.4317,0,0,0.4313,0.4317,0.4312,0.431,0.4311,0.4305,0.4322,0.4314,0.4311,0.4326,0.4316,0.4319,0.432,0.4307,0.4301,0.4307,0.4278,0.4288,0.4286,0.4285,0.428,0.4276,0.4273,0.4316,0.4316,0.4316,0,0,0.4285,0.4286,0.4275,0.4276,0.4279,0.4284,0.4282,0.4286,0.4289,0.4279,0.4291,0.4287,0.4279,0.428,0.4279,0.4253,0.4262,0.4252,0.4236,0.4229,0.4226,0.4223,0.4215,0.4212,0.425,0.425,0.425,0,0.4266,0.4258,0.4268,0.4261,0.426,0.4275,0.4265,0.4265,0.4266,0.4265,0.4273,0.4265,0.4266,0.4254,0.4248,0.4247,0.4245,0.4251,0.4226,0.4223,0.4221,0.4213,0.421,0.4249,0.4249,0.4249,0.4249,0,0.4236,0.4231,0.4222,0.4223,0.4221,0.4212,0.4222,0.4219,0.4226,0.4231,0.4222,0.4225,0.4223,0.4221,0.4227,0.421,0.4215,0.4224,0.4237,0.4216,0.4209,0.4206,0.4247,0.4247,0.4248,0.4248,0,0,0.4192,0.4201,0.4197,0.4199,0.4204,0.4199,0.4192,0.4191,0.4189,0.4189,0.4184,0.4178,0.4187,0.4186,0.4193,0.4187,0.4169,0.4197,0.4198,0.4193,0.4152,0.4146,0.4142,0.4175,0.4174,0.4174,0.4152,0,0.4165,0.4153,0.4163,0.4149,0.4145,0.416,0.4154,0.4156,0.4161,0.4158,0.4164,0.416,0.4171,0.4172,0.4166,0.4172,0.4161,0.4173,0.417,0.417,0.417,0.4138,0.4131,0.4111,0.415,0.4149,0.4149,0,0.4132,0.4133,0.4119,0.4126,0.4125,0.4119,0.412,0.4117,0.412,0.4124,0.4125,0.4134,0.4128,0.4141,0.4133,0.4142,0.4141,0.4144,0.4144,0.4144,0.4158,0.4139,0.4104,0.4102,0.4144,0.4145,0.4145,0,0.4103,0.41,0.4092,0.4092,0.41,0.4096,0.4099,0.4104,0.4103,0.4104,0.4104,0.4104,0.4104,0.4104,0.4113,0.4121,0.4105,0.4118,0.4109,0.4108,0.4104,0.4105,0.407,0.4103,0.4103,0.4103,0.4103,0,0.4073,0.4064,0.4079,0.4074,0.4065,0.4077,0.4068,0.4072,0.4076,0.4073,0.4086,0.4082,0.4094,0.4093,0.41,0.4093,0.4093,0.4096,0.4099,0.4096,0.4095,0.4096,0.4098,0.4102,0.4102,0.4102,0.4103,0,0.4038,0.4048,0.404,0.4049,0.4051,0.4044,0.4052,0.4048,0.4055,0.4051,0.405,0.4061,0.4059,0.4069,0.4068,0.4073,0.4064,0.4068,0.4063,0.4064,0.4055,0.4056,0.402,0.4016,0.405,0.405,0.405,0,0.4018,0.4012,0.4021,0.402,0.4023,0.4021,0.4021,0.4033,0.4033,0.4038,0.4033,0.4033,0.4034,0.4031,0.4038,0.4039,0.4044,0.4031,0.4044,0.4042,0.4045,0.4046,0.4046,0.4029,0.4028,0.4028,0.4028,0,0.3983,0.3989,0.3988,0.399,0.399,0.3992,0.3995,0.3993,0.4007,0.4006,0.4005,0.4006,0.4007,0.4007,0.4009,0.4013,0.4023,0.4024,0.4022,0.4019,0.4017,0.4019,0.4057,0.4024,0.4025,0.4025,0.4025,0.4025,0.3956,0.3952,0.3958,0.3958,0.3962,0.3965,0.3962,0.3969,0.3969,0.3971,0.3978,0.3977,0.3982,0.3987,0.399,0.3989,0.3995,0.3992,0.3991,0.399,0.3989,0.4017,0.3989,0.3989,0.3989,0.3989,0.399,0,0.3922,0.3927,0.3927,0.3932,0.3932,0.3942,0.3946,0.3946,0.3944,0.3949,0.395,0.395,0.3951,0.3959,0.3961,0.3959,0.3964,0.3959,0.396,0.3961,0.3983,0.3985,0.3955,0.3955,0.3955,0.3955,0.3955,0.3955,0.3905,0.3899,0.3906,0.3903,0.3908,0.3907,0.3909,0.3912,0.3916,0.3916,0.3917,0.3923,0.3929,0.3932,0.3933,0.3936,0.3936,0.3931,0.3935,0.3955,0.3959,0.3962,0.3964,0.393,0.393,0.3912,0.3912,0.3912]}]]